Location: Artalens
(42.9667°N, 0.0500°W)
Time: 05:14:54
(UTC+00:00)

Daily predictions for brighter satellites

Satellite Brightness Start Highest point End
(mag) Time Altitude Azimuth Time Altitude Azimuth Time Altitude Azimuth
Cosmos 2297 Rocket 3.5 04:09:44 34° ESE 04:09:44 34° ESE 04:13:07 10° SE
Cosmos 2227 Rocket 3.1 04:20:52 45° ESE 04:20:52 45° ESE 04:25:00 10° SE
Cosmos 2074 Rocket 4.2 04:31:13 31° N 04:34:20 67° E 04:40:30 10° SSE
Cosmos 1656 4.3 04:36:46 45° NE 04:36:46 45° NE 04:40:33 10° NNE
Cosmos 2369 4.3 04:39:28 27° S 04:42:25 54° ESE 04:48:00 10° NNE
SL-4 R/B 4.4 04:45:25 16° NE 04:45:25 16° NE 04:46:26 10° ENE
COSMO-SKYMED 1 3.1 04:54:49 10° SSE 04:59:05 58° ENE 04:59:36 54° NE
Lacrosse 5 rocket 3.5 05:05:38 18° N 05:05:38 18° N 05:07:31 10° NNE
USA 215 3.1 04:58:17 10° SE 05:04:50 90° NE 05:07:03 46° NW
Cosmos 1980 Rocket 3.2 05:02:50 10° S 05:08:14 46° ESE 05:13:37 10° NE
STARLINK-26 4.5 05:08:45 39° ESE 05:08:45 39° ESE 05:11:38 10° ENE
Meteor 1-24 Rocket 4.1 05:11:55 47° SW 05:11:55 47° SW 05:16:34 10° S
ALOS 2.6 05:08:54 10° NNE 05:13:34 67° ESE 05:18:12 10° S
FENGYUN 3A 4.0 05:09:45 10° NNE 05:15:08 67° ESE 05:20:31 10° S
Cosmos 1697 Rocket 2.5 05:13:30 24° SSW 05:17:00 84° WNW 05:22:39 10° NNE
Cosmos 1953 3.1 05:14:35 10° S 05:18:30 51° E 05:22:27 10° NNE
SKYMED 3 4.4 05:18:31 10° S 05:22:51 78° WSW 05:23:40 57° NNW
CENTAUR R/B 4.1 05:16:53 14° NNW 05:23:24 41° NE 05:31:28 10° ESE
Cosmos 2327 Rocket 4.3 05:17:14 10° NNW 05:23:31 73° W 05:29:40 10° S
Cosmos 1726 4.1 05:21:37 10° SSE 05:24:50 29° E 05:28:04 10° NNE
Nadezhda 1 Rocket 3.8 05:19:31 10° SSW 05:25:35 73° W 05:31:40 10° N
ATLAS 2AS CENTAUR R/B 4.1 05:21:51 10° S 05:29:17 47° ESE 05:36:51 10° NE
Abrixas rocket 3.7 05:32:51 25° NNE 05:32:51 25° NNE 05:34:55 10° ENE
ADEOS Rocket 4.0 05:27:25 10° SE 05:32:28 39° ENE 05:37:38 10° N
CZ-3 R/B 3.6 05:23:32 17° WSW 05:35:34 36° SSW 05:41:39 10° SE
Cosmos 773 Rocket 3.9 05:30:41 10° SSW 05:35:56 64° WNW 05:41:13 10° NNE
SJ-12 3.8 05:33:10 10° N 05:37:12 61° WNW 05:41:12 10° SSW
Cosmos 2082 3.8 05:35:56 32° NW 05:38:23 55° WSW 05:43:55 10° S
USA 238 DEB 3.9 05:34:14 18° NNW 05:39:53 79° NE 05:47:20 10° SE
USA 238 3.9 05:34:20 18° NNW 05:39:59 79° NE 05:47:26 10° SE
Cosmos 1602 Rocket 3.7 05:39:57 46° W 05:40:11 46° W 05:44:18 10° SSW
CZ-4B DEB 4.1 05:35:09 10° NNE 05:40:44 82° WNW 05:46:15 10° SSW
Cosmos 2228 3.9 05:36:33 10° S 05:40:49 52° E 05:45:06 10° NNE
BREEZE-M DEB (TANK) 4.1 05:30:49 14° WSW 05:44:19 68° NNW 05:49:05 10° NE
SKYMED 2 3.9 05:43:01 10° S 05:47:07 41° W 05:48:09 35° WNW
Cosmos 2184 Rocket 4.5 05:44:05 19° NW 05:47:48 35° W 05:53:20 10° SSW
Meteor 2-17 Rocket 4.3 05:42:31 10° NNW 05:48:37 73° W 05:54:37 10° S
Cosmos 2297 Rocket 3.3 05:51:37 23° WSW 05:51:37 23° WSW 05:55:37 10° SSW
Cosmos 1953 Rocket 4.2 05:47:01 10° N 05:51:25 57° E 05:55:45 10° SSE
Cosmos 2344 3.6 05:46:44 13° WSW 05:53:25 56° NW 06:01:29 10° NNE
Okean O Rocket 1.5 05:49:53 10° NNE 05:54:23 86° WNW 05:58:49 10° SSW
Cosmos 2154 Rocket 4.1 05:49:48 10° NNW 05:55:43 48° W 06:01:36 10° SSW
Cosmos 2322 Rocket 4.4 05:51:05 10° SSE 05:55:49 28° ESE 06:00:35 10° NE
NOSS 2-2 (D) 3.3 05:54:41 34° W 05:55:51 49° NW 05:59:46 10° NNE
Cosmos 1758 Rocket 3.4 05:52:27 10° NNW 05:56:49 73° W 06:01:12 10° S
SJ-7 4.5 05:52:46 10° NNE 05:56:56 83° ESE 06:01:06 10° S
NOSS 2 (A) 4.1 05:58:11 52° N 05:58:34 66° NE 06:00:54 10° SE
Cosmos 2360 4.2 05:54:02 10° SW 05:59:40 59° WNW 06:05:21 10° NNE
Cosmos 2227 Rocket 3.4 06:02:45 21° W 06:03:00 21° W 06:07:04 10° SSW
USA 32 4.0 05:57:54 10° N 06:03:10 85° W 06:08:25 10° S
Helios 1A Rocket 2.9 05:59:13 10° NNE 06:03:20 88° WNW 06:07:28 10° SSW
STARLINK-34 4.1 05:59:48 10° SW 06:03:45 58° SE 06:07:42 10° ENE
Cosmos 1328 4.4 05:59:52 10° N 06:03:50 59° E 06:07:45 10° SSE
FALCON 9 DEB 4.0 06:03:00 16° S 06:03:51 23° SE 06:05:23 10° E
STARLINK-24 4.1 06:02:03 10° SW 06:06:01 60° SE 06:09:58 10° ENE
STARLINK-81 4.2 06:02:56 10° SW 06:06:52 56° SE 06:10:49 10° ENE
Cosmos 1538 Rocket 4.2 06:02:32 10° SW 06:07:42 47° WNW 06:12:50 10° N
Cosmos 44 Rocket 3.5 06:05:35 21° NW 06:08:25 47° WSW 06:12:58 10° S
STARLINK-54 4.0 06:04:41 10° SW 06:08:38 63° SE 06:12:38 10° ENE
USA 116 4.5 06:04:05 10° S 06:08:50 45° W 06:13:10 10° NNW
STARLINK-77 4.1 06:06:11 10° SW 06:10:09 60° SE 06:14:07 10° ENE
Cosmos 2263 Rocket 2.7 06:06:14 10° NNW 06:11:49 59° ENE 06:17:24 10° SE
STARLINK-25 4.0 06:07:52 10° SW 06:11:50 62° SE 06:15:48 10° ENE
STARLINK-71 3.8 06:09:39 10° SW 06:13:39 70° SE 06:17:40 10° ENE
SMAP 3.6 06:09:50 10° NNE 06:14:28 63° E 06:19:05 10° S
STARLINK-48 4.1 06:13:03 23° WNW 06:14:54 36° NNW 06:18:32 10° NE
STARLINK-79 3.9 06:11:06 10° SW 06:15:06 66° SE 06:19:06 10° ENE
STARLINK-80 4.5 06:14:05 21° WNW 06:15:36 28° NNW 06:18:56 10° NE
STARLINK-78 3.8 06:12:47 10° SW 06:16:47 69° SE 06:20:48 10° ENE
Cosmos 2058 Rocket 3.3 06:12:56 10° S 06:17:19 75° E 06:21:43 10° NNE
Cosmos 1959 Rocket 4.5 06:11:54 10° N 06:18:02 87° E 06:24:11 10° S
STARLINK-57 3.7 06:14:32 10° SW 06:18:31 74° SE 06:22:33 10° ENE
Cosmos 2278 4.2 06:13:26 10° SW 06:18:44 38° WNW 06:24:04 10° N
STARLINK-46 2.6 06:18:53 31° WSW 06:19:18 36° SW 06:21:13 10° SSE
STARLINK-49 3.8 06:16:03 10° SW 06:20:03 73° SE 06:24:05 10° ENE
STARLINK-27 3.7 06:17:41 10° SW 06:21:42 75° SE 06:25:44 10° ENE
COSMOS 2455 2.9 06:17:07 10° SW 06:23:02 60° NW 06:29:01 10° NNE
Cosmos 1825 Rocket 3.9 06:19:13 10° NNW 06:23:18 42° W 06:27:22 10° SSW
STARLINK-74 3.7 06:19:20 10° SW 06:23:21 77° SE 06:27:23 10° ENE
SL-4 R/B 1.7 06:21:02 18° NW 06:23:35 72° NNE 06:26:59 10° ESE
STARLINK-39 3.6 06:21:00 10° SW 06:25:00 80° SE 06:29:03 10° NE
Cosmos 2366 rocket 4.0 06:20:16 10° N 06:26:38 84° W 06:33:00 10° S
STARLINK 3.6 06:22:38 10° SW 06:26:39 82° SE 06:30:42 10° NE
STARLINK-69 3.5 06:24:29 10° SW 06:28:30 89° NW 06:32:33 10° NE
STARLINK-21 3.5 06:25:59 10° SW 06:30:00 88° SE 06:34:03 10° NE
STARLINK-45 3.5 06:27:52 10° SW 06:31:53 83° NNW 06:35:56 10° NE
NOSS 3-2 (C) 4.1 06:24:36 10° NW 06:32:15 84° SW 06:40:44 10° SSE
NOSS 7 (D) 4.3 06:29:56 14° NW 06:32:29 61° SW 06:35:55 10° SSE
SL-16 R/B 2.7 06:27:06 10° SSW 06:32:43 67° ESE 06:38:21 10° NNE
NOAA 6 4.5 06:28:00 10° N 06:32:49 40° WNW 06:37:37 10° SW
STARLINK-70 3.5 06:29:25 10° SW 06:33:26 84° NW 06:37:28 10° NE
NOSS 2-2 (C) 4.5 06:32:17 13° W 06:34:45 23° NW 06:38:05 10° NNE
STARLINK-76 3.5 06:30:57 10° SW 06:34:58 85° NW 06:39:01 10° NE
COSMO-SKYMED 1 4.3 06:33:31 10° WSW 06:35:36 13° W 06:36:49 12° WNW
STARLINK 3.5 06:32:37 10° SW 06:36:39 83° NW 06:40:41 10° NE
YAOGAN 6 3.8 06:34:46 10° NNE 06:38:13 46° E 06:41:37 10° S
STARLINK-32 3.5 06:34:14 10° WSW 06:38:15 81° NW 06:42:19 10° NE
H-2A R/B 2.8 06:34:30 10° N 06:38:21 56° WNW 06:42:10 10° SSW
STARLINK-40 3.5 06:35:55 10° WSW 06:39:56 78° NW 06:43:59 10° NE
Cosmos 1606 Rocket 4.3 06:37:02 10° SW 06:41:00 31° WNW 06:44:59 10° NNW
CZ-4 R/B 3.7 06:37:17 10° NNE 06:41:02 30° E 06:44:46 10° SSE
STARLINK-44 3.5 06:37:32 10° WSW 06:41:34 76° NW 06:45:36 10° NE
Envisat 3.4 06:36:37 10° NNE 06:41:43 69° ESE 06:46:46 10° S
Cosmos 1680 Rocket 3.5 06:36:36 10° SSW 06:41:54 70° WNW 06:47:13 10° NNE
CZ-4B R/B 3.7 06:36:52 10° N 06:42:01 39° WNW 06:47:02 10° SW
STARLINK-37 3.5 06:39:21 10° WSW 06:43:21 71° NW 06:47:24 10° NE
Feng Yun 1-1 Rocket 4.5 06:37:32 10° NNE 06:43:32 90° SSE 06:49:24 10° SSW
Cosmos 1726 Rocket 4.1 06:39:47 10° SW 06:43:53 36° WNW 06:48:01 10° N
STARLINK-42 3.4 06:40:23 10° WSW 06:44:11 67° NNW 06:48:00 10° NE
Lacrosse 5 rocket 3.7 06:42:12 10° NNW 06:44:29 13° N 06:46:44 10° NNE
STARLINK-33 3.3 06:40:54 10° WSW 06:44:32 63° NNW 06:48:11 10° NE
STARLINK-64 3.4 06:41:02 10° WSW 06:44:51 68° NNW 06:48:41 10° NE
NOSS 3-4 (A) 3.4 06:38:56 10° SW 06:44:54 84° NW 06:51:16 10° NE
STARLINK-36 3.5 06:40:54 10° WSW 06:44:55 72° NNW 06:48:57 10° NE
NOSS 3-4 (C) 3.4 06:39:03 10° SW 06:45:00 85° WNW 06:51:22 10° NE
STARLINK-26 4.1 06:42:24 10° W 06:45:37 32° NNW 06:48:50 10° NE
Cosmos 2360 Rocket 4.0 06:40:49 10° S 06:45:58 37° ESE 06:51:07 10° NE
Meteor 1-11 4.2 06:40:47 10° NNW 06:46:21 71° W 06:51:57 10° S
Cosmos 1371 Rocket 4.2 06:41:17 10° NNW 06:46:35 78° ENE 06:51:54 10° SSE
STARLINK-68 3.5 06:42:46 10° WSW 06:46:46 65° NNW 06:50:47 10° NE
EXPRESS MD2 3.9 06:45:22 10° WNW 06:47:25 19° NNW 06:49:09 10° NE
ATLAS 3B R/B 3.0 06:41:22 10° NNW 06:48:07 72° NE 06:55:02 10° SE
STARLINK-63 3.5 06:44:20 10° WSW 06:48:20 65° NNW 06:52:21 10° NE
USA 215 4.4 06:43:11 10° S 06:48:21 25° SW 06:53:34 10° WNW
STARLINK-66 3.4 06:45:47 10° WSW 06:49:22 57° NNW 06:52:59 10° NE
STARLINK-35 3.5 06:45:53 10° WSW 06:49:54 66° NNW 06:53:54 10° NE
ALOS 3.8 06:47:52 10° NNW 06:50:26 15° WNW 06:52:58 10° W
Cosmos 1908 3.7 06:46:59 10° SSW 06:50:41 40° WNW 06:54:24 10° N
STARLINK-51 3.6 06:47:31 10° WSW 06:51:32 64° NNW 06:55:32 10° NE
Cosmos 2181 Rocket 4.4 06:45:58 10° SW 06:51:44 41° WNW 06:57:38 10° N
Cosmos 1980 Rocket 3.0 06:47:30 10° WSW 06:52:24 29° NW 06:57:20 10° N
AQUARIUS 4.2 06:48:24 10° N 06:52:49 57° WNW 06:57:13 10° SSW
STARLINK-30 3.6 06:49:12 10° WSW 06:53:11 63° NNW 06:57:12 10° NE
Cosmos 1300 3.2 06:49:31 10° S 06:53:17 64° E 06:57:04 10° NNE
Cosmos 1703 4.0 06:50:53 10° NNW 06:54:28 33° W 06:58:01 10° SSW
STARLINK-55 3.5 06:51:15 10° WSW 06:54:48 51° NNW 06:58:22 10° NE
STARLINK-72 3.6 06:50:52 10° WSW 06:54:50 61° NNW 06:58:51 10° NE
Cosmos 1953 4.1 06:53:23 10° W 06:55:15 13° WNW 06:57:07 10° NW
STARLINK-50 3.6 06:52:31 10° WSW 06:56:30 59° NNW 07:00:29 10° NE
Cosmos 2112 Rocket 4.1 06:52:32 10° SSW 06:57:48 59° WNW 07:03:07 10° NNE
STARLINK-61 4.1 06:54:05 10° W 06:57:50 39° NNW 07:01:35 10° NE
STARLINK-59 3.7 06:54:19 10° WSW 06:58:17 56° NNW 07:02:15 10° NE
STARLINK-56 3.7 06:55:51 10° WSW 06:59:49 56° NNW 07:03:48 10° NE
Cosmos 1726 3.6 06:57:39 10° WSW 07:00:06 17° WNW 07:02:35 10° NNW
